Location: Kaiser
(34.0939°N, 117.4889°W)
Time: 02:04:02
(UTC+00:00)

Cosmos 1092 Rocket - Pass Details

Date: 29 October 2020
Orbit: 955 x 994 km, 83.0° (Epoch: 26 November)

Event Time Altitude Azimuth Distance (km) Brightness Sun altitude
Rises 11:57:40 0° 174° (S) 3,621 7.0 -27.4°
Reaches altitude 10° 12:00:10 10° 171° (S) 2,682 6.4 -26.9°
Maximum altitude 12:06:12 62° 92° (E) 1,078 4.4 -25.6°
Drops below altitude 10° 12:12:19 10° 14° (NNE) 2,720 6.5 -24.4°
Sets 12:14:52 0° 11° (N) 3,677 7.1 -23.8°
